Grand Etang, Nova Scotia

1:35 PM ADT on April 26, 2017 (GMT -0300)
Grand Etang

Weather History for CWZQ - October, 2012

Change the Weather History Date:

Sunday, October 28, 2012

  Actual Average Record
Temperature  
Mean Temperature 54 °F -  
Max Temperature 63 °F - - ()
Min Temperature 46 °F - - ()
Degree Days  
Heating Degree Days 10    
Growing Degree Days 4 (Base 50)    
Moisture  
Dew Point 50 °F    
Average Humidity 83    
Maximum Humidity 95    
Minimum Humidity 73    
Precipitation  
Precipitation 0.00 in - - ()
Sea Level Pressure  
Sea Level Pressure 30.03 in    
Wind  
Wind Speed 14 mph ()    
Max Wind Speed 50 mph    
Max Gust Speed 71 mph    
T = Trace of Precipitation, MM = Missing Value Source: Averaged Metar Reports

Daily Weather History Graph

Daily Weather History Graph

Search for Another Location

Airport or City:

Trip Planner

Search our weather history database for the weather conditions in past years. The results will help you decide how hot, cold, wet, or windy it might be!

Date:

Astronomy

Oct. 28, 2012 Rise Set
Actual Time 7:40 AM ADT 5:54 PM ADT
Civil Twilight 7:09 AM ADT 6:25 PM ADT
Nautical Twilight 6:33 AM ADT 7:01 PM ADT
Astronomical Twilight 5:58 AM ADT 7:36 PM ADT
Moon 5:10 PM ADT (10/28) 6:27 AM ADT (10/28)
Length of Visible Light 11h 16m
Length of Day
10h 13m
Waxing Gibbous, 99% of the Moon is Illuminated
Oct 28
Waxing Gibbous
Oct 29
Full
Nov 6
Last Quarter
Nov 13
New
Nov 20
First Quarter

Hourly Weather History & Observations

Time (ADT) Temp. Windchill Dew Point Humidity Pressure Visibility Wind Dir Wind Speed Gust Speed Precip Events Conditions
12:20 AM 48.4 °F - 46.0 °F 92% - - NNE 9.2 mph - N/A   Unknown
12:40 AM 48.9 °F - 46.4 °F 91% - - North 11.5 mph - N/A   Unknown
1:00 AM 49.5 °F - 46.9 °F 91% 30.08 in - North 11.5 mph - N/A   Unknown
1:20 AM 48.9 °F - 46.6 °F 92% - - NNE 8.1 mph - N/A   Unknown
1:40 AM 48.9 °F - 46.6 °F 92% - - NNW 8.1 mph - N/A   Unknown
2:00 AM 46.4 °F 41.1 °F 43.9 °F 91% 30.08 in - NNE 11.5 mph - N/A   Unknown
2:20 AM 47.1 °F - 45.7 °F 95% - - North 5.8 mph - N/A   Unknown
3:00 AM 47.7 °F - 45.3 °F 92% 30.06 in - NNE 9.2 mph - N/A   Unknown
3:20 AM 48.6 °F - 46.0 °F 91% - - NNE 11.5 mph - N/A   Unknown
3:40 AM 47.7 °F - 45.5 °F 92% - - NE 8.1 mph - N/A   Unknown
4:00 AM 47.1 °F - 45.0 °F 92% 30.05 in - NNE 11.5 mph - N/A   Unknown
4:20 AM 48.6 °F - 46.6 °F 93% - - NNE 10.4 mph - N/A   Unknown
4:40 AM 48.9 °F - 46.9 °F 93% - - North 10.4 mph - N/A   Unknown
5:00 AM 48.7 °F - 46.6 °F 92% 30.06 in - North 11.5 mph - N/A   Unknown
5:20 AM 48.6 °F - 46.2 °F 92% - - NNE 9.2 mph - N/A   Unknown
5:40 AM 48.7 °F - 46.2 °F 91% - - North 11.5 mph - N/A   Unknown
6:00 AM 48.6 °F - 45.7 °F 90% 30.05 in - NNE 11.5 mph - N/A   Unknown
6:20 AM 48.6 °F - 45.9 °F 90% - - North 11.5 mph - N/A   Unknown
6:40 AM 48.9 °F - 46.0 °F 90% - - North 11.5 mph - N/A   Unknown
7:00 AM 49.1 °F - 46.4 °F 90% 30.03 in - NNW 15.0 mph - N/A   Unknown
7:20 AM 50.0 °F - 47.5 °F 91% - - NNW 15.0 mph - N/A   Unknown
7:40 AM 50.2 °F - 47.8 °F 92% - - NNW 15.0 mph - N/A   Unknown
8:00 AM 51.4 °F - 49.1 °F 92% 30.03 in - NNW 16.1 mph - N/A   Unknown
8:20 AM 52.2 °F - 49.5 °F 91% - - North 9.2 mph - N/A   Unknown
8:40 AM 52.3 °F - 49.6 °F 91% - - North 6.9 mph - N/A   Unknown
9:00 AM 54.5 °F - 50.7 °F 87% 30.04 in - NW 16.1 mph - N/A   Unknown
9:20 AM 56.5 °F - 52.0 °F 85% - - NW 3.5 mph - N/A   Unknown
9:40 AM 60.3 °F - 54.7 °F 82% - - NNW 1.2 mph - N/A   Unknown
10:00 AM 58.5 °F - 52.9 °F 82% 30.04 in - North 12.7 mph - N/A   Unknown
10:20 AM 58.3 °F - 52.5 °F 81% - - North 11.5 mph - N/A   Unknown
10:40 AM 57.4 °F - 52.3 °F 83% - - West 2.3 mph - N/A   Unknown
11:00 AM 57.9 °F - 52.9 °F 83% 30.04 in - NW 12.7 mph - N/A   Unknown
11:20 AM 59.0 °F - 53.6 °F 82% - - NNE 6.9 mph - N/A   Unknown
11:40 AM 61.5 °F - 54.3 °F 77% - - NE 9.2 mph - N/A   Unknown
12:00 PM 56.8 °F - 52.0 °F 84% 30.04 in - NNW 11.5 mph - N/A   Unknown
12:20 PM 56.8 °F - 52.5 °F 85% - - NNW 13.8 mph - N/A   Unknown
12:40 PM 57.7 °F - 52.5 °F 83% - - NNE 12.7 mph - N/A   Unknown
1:00 PM 55.4 °F - 51.3 °F 86% 30.04 in - North 15.0 mph - N/A   Unknown
1:40 PM 56.5 °F - 52.2 °F 85% - - NNW 11.5 mph - N/A   Unknown
2:00 PM 61.3 °F - 55.4 °F 81% 30.02 in - NE 15.0 mph - N/A   Unknown
2:20 PM 63.1 °F - 54.7 °F 74% - - ENE 9.2 mph - N/A   Unknown
2:40 PM 62.8 °F - 54.1 °F 73% - - East 11.5 mph 20.7 mph N/A   Unknown
3:00 PM 61.9 °F - 53.8 °F 75% 30.02 in - ENE 11.5 mph 21.9 mph N/A   Unknown
3:20 PM 61.5 °F - 53.6 °F 75% - - NE 10.4 mph 21.9 mph N/A   Unknown
3:40 PM 61.3 °F - 53.2 °F 75% - - NE 9.2 mph 17.3 mph N/A   Unknown
4:00 PM 60.6 °F - 52.9 °F 76% 30.03 in - ENE 16.1 mph 27.6 mph N/A   Unknown
4:20 PM 60.3 °F - 52.7 °F 76% - - East 12.7 mph 27.6 mph N/A   Unknown
4:40 PM 60.1 °F - 52.7 °F 77% - - East 24.2 mph 35.7 mph N/A   Unknown
5:00 PM 60.1 °F - 52.7 °F 77% 29.99 in - East 27.6 mph 40.3 mph N/A   Unknown
5:20 PM 60.3 °F - 52.3 °F 75% - - East 28.8 mph 42.6 mph N/A   Unknown
5:40 PM 59.7 °F - 52.3 °F 77% - - East 28.8 mph 46.0 mph N/A   Unknown
6:00 PM 59.5 °F - 52.2 °F 77% 29.98 in - East 34.5 mph 47.2 mph N/A   Unknown
6:20 PM 59.5 °F - 52.3 °F 77% - - East 38.0 mph 52.9 mph N/A   Unknown
6:40 PM 59.7 °F - 52.3 °F 77% - - East 39.1 mph 55.2 mph N/A   Unknown
7:00 PM 59.9 °F - 52.3 °F 76% 29.98 in - East 39.1 mph 56.4 mph N/A   Unknown
7:20 PM 60.1 °F - 52.3 °F 76% - - East 39.1 mph 56.4 mph N/A   Unknown
7:40 PM 60.3 °F - 52.3 °F 75% - - East 42.6 mph 71.3 mph N/A   Unknown
8:00 PM 60.1 °F - 52.3 °F 76% 29.98 in - East 44.9 mph 61.0 mph N/A   Unknown
8:20 PM 59.7 °F - 52.7 °F 78% - - East 42.6 mph 58.7 mph N/A   Unknown
8:40 PM 60.1 °F - 52.3 °F 76% - - East 47.2 mph 70.2 mph N/A   Unknown
9:00 PM 59.9 °F - 52.3 °F 76% 29.93 in - East 49.5 mph 63.3 mph N/A   Unknown
9:20 PM 60.6 °F - 52.3 °F 74% - - East 42.6 mph 66.7 mph N/A   Unknown
9:40 PM 60.1 °F - 52.2 °F 75% - - East 27.6 mph 59.8 mph N/A   Unknown
10:00 PM 59.5 °F - 51.8 °F 76% 30.02 in - ESE 49.5 mph - N/A   Unknown
10:20 PM 59.0 °F - 51.6 °F 76% - - ENE 17.3 mph 42.6 mph N/A   Unknown
10:40 PM 59.0 °F - 51.6 °F 76% - - NNE 11.5 mph 26.5 mph N/A   Unknown
11:00 PM 58.8 °F - 51.6 °F 77% 30.03 in - NE 17.3 mph 28.8 mph N/A   Unknown
11:20 PM 58.1 °F - 51.4 °F 78% - - ENE 8.1 mph 18.4 mph N/A   Unknown
11:40 PM 58.1 °F - 51.3 °F 78% - - East 9.2 mph 20.7 mph N/A   Unknown